logo
App data

Star Project

STAR PROJECT - it's a great opportunity to meet new species and demonstrate superiority of the earthlings over all other populated worlds. Meet with unprecedented aggressive-minded space races and crush their best pilots! Your task is to destroy any military flotilla, which only meet in the deep space.
Store | Hub | SteamDB | Site
Developer: Spectrum Games Publisher: Dagestan Technology
Genre: Action, Indie, RPG
Languages: English
Tags: Action (22), Indie (21), RPG (20)
Category: Single-player, Steam Trading Cards
Release date: Aug 4, 2016
Price: $1.99
Score rank: 2% Userscore: 19% Old userscore: 32%
Owners: 100,000 .. 200,000
Followers: 104
Peak concurrent players yesterday: 9
YouTube stats: 6,501 views and 34 comments for videos uploaded last week, 0 new videos uploaded yesterday.
Playtime total: 03:59 (average) 03:41 (median)

Steam Spy is still in beta, so expect major bugs.

Owners data:

Access restricted.

This feature is only available to users with special access rights. Sorry.

If you want to proceed, you need to register or log in first and then back Steam Spy on Patreon. Look for Indie or Pro pledge.

Don't forget to use the same email as on Steam Spy!

Audience in 2 weeks:

Access restricted.

This feature is only available to users with special access rights. Sorry.

If you want to proceed, you need to register or log in first and then back Steam Spy on Patreon. Look for Indie or Pro pledge.

Don't forget to use the same email as on Steam Spy!

Peak daily concurrent players:

CCU data courtesy of SteamDB. Used with permission.

Hourly concurrent players:

YouTube:

The views data is based on top 50 videos uploaded last week. Actual number of views might be more than the number shown.

The displayed number of videos uploaded yesterday is limited to 50, so if there were more videos uploaded, the number will still show 50.

If the game has commonly used word as its name (like "FEAR" or "Volume") its number of Youtube views might be wrong.

Games similar to this one:

# Game Release date
Price
Score rank
(Userscore / Metascore)
Owners
Players
Playtime (Median)
1 Little Big Adventure 2 Oct 20, 2015 $3.9999% (98%)20,000 .. 50,0000%00:00 (00:00)
2 Dungeon Warfare Nov 4, 2015 $9.9997% (97%)20,000 .. 50,0001.35%00:23 (00:07)
3 Seven Kingdoms: Ancient Adversaries Jun 8, 1998 $5.99N/A (N/A)0 .. 20,0000%00:00 (00:00)
4 Militia Dec 2, 2015 $5.9995% (96%)0 .. 20,0000%00:00 (00:00)
5 Imperium Galactica Mar 1, 1997 $4.99N/A (N/A)0 .. 20,0000%00:00 (00:00)
6 Defend The Highlands Nov 6, 2015 $9.9995% (96%)100,000 .. 200,0000%00:00 (00:00)
7 Voodoo Vince: Remastered Apr 18, 2017 $14.9995% (96%/63%)0 .. 20,0000%00:00 (00:00)
8 Templar Battleforce Sep 21, 2015 $9.9993% (95%)20,000 .. 50,0000%00:00 (00:00)
9 Supercharged Robot VULKAISER Jun 4, 2015 $4.9993% (95%)20,000 .. 50,0000%00:00 (00:00)
10 Hegemony Gold: Wars of Ancient Greece Mar 30, 2012 $14.9993% (95%)20,000 .. 50,0000%00:00 (00:00)
11 Chicken Invaders 2 Mar 4, 2016 $3.9993% (95%)0 .. 20,0000%00:00 (00:00)
12 Flywrench Aug 24, 2015 $6.9993% (95%)0 .. 20,0000%00:00 (00:00)
13 Star Trek: Judgment Rites May 8, 2015 $9.99N/A (N/A)0 .. 20,0000%00:00 (00:00)
14 Outcast 1.1 Dec 18, 2014 $5.9990% (94%)20,000 .. 50,0000%00:00 (00:00)
15 PixelJunk Shooter Nov 11, 2013 $8.9990% (94%/73%)100,000 .. 200,0000.62%01:12 (00:40)
16 Audio Arena Jul 25, 2016 $6.99N/A (N/A)0 .. 20,0000%00:00 (00:00)
17 Adventure in the Tower of Flight Dec 23, 2015 $4.9990% (94%)0 .. 20,0000%00:00 (00:00)
18 Majesty Gold HD Mar 23, 2001 $9.9990% (94%)100,000 .. 200,0000%00:00 (00:00)
19 Gold Rush! Classic Dec 23, 1988 $2.9990% (94%)200,000 .. 500,0000.24%03:02 (01:56)
20 Neon Chrome Apr 28, 2016 $14.9990% (94%/74%)200,000 .. 500,0000%00:00 (00:00)
21 Stick it to The Man! Dec 13, 2013 $7.9990% (94%/83%)20,000 .. 50,0000%00:00 (00:00)
22 ESCHATOS Sep 18, 2015 $14.9990% (94%)0 .. 20,0000%00:00 (00:00)
23 Handsome Mr. Frog Aug 8, 2016 $0.9987% (93%)0 .. 20,0000%00:00 (00:00)
24 Pharaoh Rebirth+ Mar 17, 2016 $9.9987% (93%)0 .. 20,0005.26%10:27 (03:29)
25 Eufloria HD Oct 14, 2014 $14.9987% (93%)200,000 .. 500,0000%00:00 (00:00)
26 Kalimba Apr 22, 2015 $9.9987% (93%/81%)0 .. 20,0000%00:00 (00:00)
27 Anarcute Jul 12, 2016 $14.9987% (93%/79%)0 .. 20,0000%00:00 (00:00)
28 Kick Ass Commandos Nov 17, 2016 $4.9987% (93%)20,000 .. 50,0000%00:00 (00:00)
29 Major Mayhem Feb 24, 2014 $4.9987% (93%)20,000 .. 50,0000%00:00 (00:00)
30 Run or Die Dec 11, 2014 $4.9987% (93%)0 .. 20,0000%00:00 (00:00)
31 Super Trench Attack! Jul 24, 2014 $4.9987% (93%)50,000 .. 100,0000.87%00:22 (00:14)
32 Bleed Jul 3, 2013 $1.9987% (93%)100,000 .. 200,0001.2%00:41 (00:27)
33 Shmups Skill Test シューティング技能検定 Jun 9, 2016 $4.99N/A (N/A)0 .. 20,0000%00:00 (00:00)
34 Ittle Dew Jul 23, 2013 $9.9983% (92%/67%)100,000 .. 200,0000.39%00:08 (00:02)
35 Darknet Jun 8, 2017 $14.9983% (92%)0 .. 20,0000%00:00 (00:00)
36 Death Ray Manta SE Sep 17, 2015 $1.9983% (92%)20,000 .. 50,0000%00:00 (00:00)
37 Knightmare Tower Jun 16, 2014 $3.9983% (92%)0 .. 20,0000%00:00 (00:00)
38 Great Big War Game Aug 28, 2012 $6.99N/A (N/A)0 .. 20,0000%00:00 (00:00)
39 Miracle Fly Oct 26, 2015 $7.9983% (92%)20,000 .. 50,0000%00:00 (00:00)
40 Tallowmere Mar 3, 2015 $3.9983% (92%)20,000 .. 50,0002.22%00:29 (00:09)
41 Counter Spell Oct 5, 2015 $9.9983% (92%)0 .. 20,00020%00:07 (00:03)
42 Wars and Warriors: Joan of Arc Feb 7, 2004 $6.9983% (92%/60%)0 .. 20,0000%00:00 (00:00)
43 Ys VI: The Ark of Napishtim Apr 28, 2015 $19.9983% (92%/76%)50,000 .. 100,0001.22%02:58 (00:59)
44 Momodora III Jul 1, 2014 $1.9980% (91%)50,000 .. 100,0002.15%00:26 (00:17)
45 Angry Video Game Nerd II: ASSimilation Mar 29, 2016 $9.9980% (91%)20,000 .. 50,0000%00:00 (00:00)
46 Super Cyborg Jul 8, 2015 $4.9980% (91%)20,000 .. 50,0000%00:00 (00:00)
47 Clash of Puppets Dec 16, 2014 $4.99N/A (N/A)0 .. 20,0000%00:00 (00:00)
48 Battle Academy 2: Eastern Front Sep 12, 2014 $39.9980% (91%/78%)0 .. 20,0000%00:00 (00:00)
49 Skulls of the Shogun Jul 29, 2013 $9.9980% (91%/72%)100,000 .. 200,0000.31%04:09 (01:23)
50 Kohan II: Kings of War Sep 21, 2004 $9.9980% (91%/81%)20,000 .. 50,0000%00:00 (00:00)
51 Mad Bullets Jun 10, 2016 $2.9980% (91%)0 .. 20,0000%00:00 (00:00)
52 Apocalypse: Party's Over May 30, 2016 $4.9980% (91%)0 .. 20,0000%00:00 (00:00)
53 Codename: Panzers, Phase Two Jul 21, 2005 $14.9980% (91%/80%)20,000 .. 50,0000%00:00 (00:00)
54 Warrior Kings: Battles Sep 30, 2003 $9.9980% (91%/64%)20,000 .. 50,0000%00:00 (00:00)
55 Dandy: Or a Brief Glimpse Into the Life of the Candy Alchemist Aug 4, 2015 $9.99N/A (N/A)0 .. 20,0000%00:00 (00:00)
56 Weird Hero Nov 18, 2016 $3.9980% (91%)0 .. 20,0000%00:00 (00:00)
57 Flashpoint Campaigns: Red Storm Player's Edition Oct 9, 2013 $49.9980% (91%)0 .. 20,0000%00:00 (00:00)
58 Blue Estate The Game Apr 8, 2015 $12.9980% (91%/59%)50,000 .. 100,0000.71%04:06 (01:22)
59 The Juicer Sep 6, 2012 $0.9980% (91%)20,000 .. 50,0000%00:00 (00:00)
60 Near Death Aug 2, 2016 $14.9980% (91%/70%)20,000 .. 50,0000%00:00 (00:00)
61 Below Kryll Sep 7, 2015 $4.9980% (91%)0 .. 20,0000%00:00 (00:00)
62 Amaranthine Apr 6, 2016 $2.9977% (90%)0 .. 20,0000%00:00 (00:00)
63 Wild Guns Reloaded Jul 11, 2017 $14.9977% (90%)0 .. 20,0000%00:00 (00:00)
64 Khet 2.0 Oct 1, 2014 $2.4977% (90%)50,000 .. 100,0000%00:00 (00:00)
65 Earth Defense Force: Insect Armageddon Dec 14, 2011 $9.9977% (90%/69%)50,000 .. 100,0000%00:00 (00:00)
66 Death's Hangover Jan 20, 2017 $4.9977% (90%)20,000 .. 50,0001.09%00:10 (00:03)
67 Ace of Seafood Apr 8, 2016 $11.9977% (90%)0 .. 20,0000%00:00 (00:00)
68 Headlander Jul 25, 2016 $19.9977% (90%/74%)50,000 .. 100,0000%00:00 (00:00)
69 Planet of the Eyes Aug 24, 2015 $9.9977% (90%/66%)50,000 .. 100,0000%00:00 (00:00)
70 Sneaky Sneaky Nov 12, 2014 $4.9977% (90%/63%)0 .. 20,0000%00:00 (00:00)
71 Zombo Buster Rising Oct 2, 2016 $1.9977% (90%)0 .. 20,0000%00:00 (00:00)
72 Warhammer 40,000: Dawn of War – Winter Assault Jan 1, 2006 $12.9977% (90%)500,000 .. 1,000,0000.13%00:12 (00:04)
73 Superstatic Sep 15, 2015 $4.99N/A (N/A)0 .. 20,0001.69%00:01 (00:00)
74 RIVE: Wreck, Hack, Die, Retry! Sep 13, 2016 $14.9977% (90%)200,000 .. 500,0000.2%03:33 (01:11)
75 Valley Aug 24, 2016 $19.9977% (90%)200,000 .. 500,0002.02%01:25 (01:49)
76 Swords and Soldiers HD Dec 2, 2010 $9.9977% (90%)100,000 .. 200,0000.17%00:28 (00:36)
77 MoonBase Commander Aug 13, 2002 $5.9977% (90%/77%)20,000 .. 50,0000%00:00 (00:00)
78 Fort Meow Jun 25, 2015 $7.9974% (89%)0 .. 20,0000%00:00 (00:00)
79 Silent Storm Gold Edition Sep 9, 2004 $9.9974% (89%/83%)200,000 .. 500,0000%00:00 (00:00)
80 CastleStorm Jul 29, 2013 $9.9974% (89%/73%)100,000 .. 200,0000.87%03:07 (01:03)
81 Lethe - Episode One Aug 1, 2016 $14.9974% (89%)0 .. 20,0000%00:00 (00:00)
82 Reverse Crawl Sep 24, 2015 $5.9974% (89%)20,000 .. 50,0000%00:00 (00:00)
83 Tcheco in the Castle of Lucio Jun 22, 2015 $0.9974% (89%)50,000 .. 100,0000.41%05:00 (01:40)
84 Armed with Wings: Rearmed Jun 1, 2017 $9.9974% (89%)20,000 .. 50,0000%00:00 (00:00)
85 Earn to Die 2 May 5, 2016 $4.9971% (88%)20,000 .. 50,0005.88%00:07 (00:02)
86 Kohan: Ahriman's Gift Nov 6, 2001 $9.99N/A (N/A/79%)0 .. 20,0000%00:00 (00:00)
87 Explosionade Sep 23, 2015 $3.99N/A (N/A)0 .. 20,0000%00:00 (00:00)
88 Mr. Shifty Apr 13, 2017 $14.9971% (88%)50,000 .. 100,0001.11%02:26 (02:15)
89 Viking Squad Oct 4, 2016 $14.9971% (88%)0 .. 20,0000%00:00 (00:00)
90 Anodyne Mar 22, 2013 $9.9971% (88%/75%)100,000 .. 200,0000%00:00 (00:00)
91 Battlepillars Gold Edition Apr 28, 2014 $4.9971% (88%)20,000 .. 50,0004.55%05:48 (04:26)
92 Greed Corp Dec 10, 2010 $9.9971% (88%/76%)200,000 .. 500,0000%00:00 (00:00)
93 The Fall May 30, 2014 $9.9971% (88%/76%)200,000 .. 500,0000%00:00 (00:00)
94 Atom Zombie Smasher Mar 14, 2011 $9.9971% (88%/75%)200,000 .. 500,0000.57%00:36 (00:15)
95 TRON 2.0 Aug 22, 2003 $9.9971% (88%/84%)50,000 .. 100,0002.04%00:02 (00:00)
96 Spectromancer Oct 15, 2008 $9.9968% (87%)20,000 .. 50,0000%00:00 (00:00)
97 Blacksea Odyssey Jun 1, 2016 $9.9968% (87%/74%)20,000 .. 50,0002.44%01:04 (00:21)
98 Syrian Warfare Feb 21, 2017 $14.9968% (87%)50,000 .. 100,0002.44%00:48 (00:16)
99 Rush for Berlin Gold Oct 29, 2009 $4.9968% (87%/76%)20,000 .. 50,0000%00:00 (00:00)
100 Time Rifters Oct 21, 2014 $9.9968% (87%)0 .. 20,0007.41%02:33 (01:42)
101 Sang-Froid - Tales of Werewolves Apr 5, 2013 Free68% (87%/79%)200,000 .. 500,0000%00:00 (00:00)
102 The Haunted: Hells Reach Oct 24, 2011 $8.9968% (87%/51%)50,000 .. 100,0000%00:00 (00:00)
103 Shadow Blade: Reload Aug 10, 2015 $5.2468% (87%/70%)20,000 .. 50,0000%00:00 (00:00)
104 The Tiny Tale 2 Jan 30, 2015 $6.99N/A (N/A)0 .. 20,0000%00:00 (00:00)
105 Avoid - Sensory Overload Apr 8, 2014 $4.9968% (87%)20,000 .. 50,0000%00:00 (00:00)
106 Spider: Rite of the Shrouded Moon Aug 6, 2015 $9.99N/A (N/A)20,000 .. 50,0000%00:00 (00:00)
107 Spooky Cats Jun 4, 2015 $2.9968% (87%)20,000 .. 50,0000%00:00 (00:00)
108 Ballistic Tanks Sep 20, 2016 $4.9966% (86%)0 .. 20,0000%00:00 (00:00)
109 N2O: Nitrous Oxide Jun 29, 2015 $4.99N/A (N/A)0 .. 20,0000%00:00 (00:00)
110 The Way May 20, 2016 $2.9966% (86%/67%)50,000 .. 100,0000%00:00 (00:00)
111 Civilization IV: Warlords Jul 24, 2006 $4.9966% (86%/84%)1,000,000 .. 2,000,0000%00:00 (00:00)
112 NOBUNAGA'S AMBITION: Souzou (Traditional Chinese version) Aug 2014 $24.9966% (86%)20,000 .. 50,0000%00:00 (00:00)
113 Super Chibi Knight Jun 24, 2015 $4.9966% (86%)20,000 .. 50,0002%01:55 (00:38)
114 Command: Northern Inferno Oct 22, 2015 $19.99N/A (N/A)0 .. 20,0000%00:00 (00:00)
115 Meltdown Jun 5, 2014 $6.9966% (86%)50,000 .. 100,0000.96%00:03 (00:01)
116 Star Ruler Sep 20, 2010 $9.9966% (86%)100,000 .. 200,0000%00:00 (00:00)
117 Steel Rain Dec 3, 2015 $9.99N/A (N/A)0 .. 20,0002.22%00:01 (00:00)
118 Slash or Die Jun 3, 2016 $2.9966% (86%)20,000 .. 50,0000%00:00 (00:00)
119 Arcane Sorcery Sep 15, 2015 $4.99N/A (N/A)0 .. 20,0000%00:00 (00:00)
120 Executive Assault Jul 17, 2015 $12.9966% (86%)20,000 .. 50,0002%00:01 (00:00)
121 Supreme Commander Feb 20, 2007 $12.9966% (86%/86%)500,000 .. 1,000,0000.13%03:25 (01:08)
122 Delta Force 2 Oct 31, 1999 $4.9963% (85%)20,000 .. 50,0003.23%00:06 (00:02)
123 Dustoff Heli Rescue Mar 6, 2015 $3.9963% (85%)20,000 .. 50,0000%00:00 (00:00)
124 Ghost Master Aug 23, 2003 $4.9963% (85%/81%)100,000 .. 200,0000%00:00 (00:00)
125 Interloper May 21, 2015 Free63% (85%/77%)50,000 .. 100,0000.34%00:49 (00:16)
126 ShootMania Storm Apr 10, 2013 $19.9963% (85%/76%)50,000 .. 100,0000%00:00 (00:00)
127 Gurgamoth Feb 16, 2016 $4.9963% (85%)50,000 .. 100,0000.61%02:31 (00:50)
128 Rooks Keep Dec 5, 2014 $7.99N/A (N/A)20,000 .. 50,0001.22%03:30 (01:10)
129 Age of Wonders Shadow Magic Oct 2010 $2.4963% (85%/82%)100,000 .. 200,0000%00:00 (00:00)
130 VelocityUltra Dec 12, 2013 $9.9963% (85%)50,000 .. 100,0000.63%00:02 (00:00)
131 Western 1849 Reloaded Feb 10, 2017 $4.9963% (85%)0 .. 20,0001.89%00:06 (00:02)
132 ENSLAVED: Odyssey to the West Premium Edition Oct 24, 2013 $19.9963% (85%/70%)200,000 .. 500,0000.18%08:34 (02:51)
133 Last Knight: Rogue Rider Edition Oct 3, 2014 $1.5963% (85%)20,000 .. 50,0000%00:00 (00:00)
134 Magnifico Dec 2, 2014 $4.99N/A (N/A)50,000 .. 100,0000%00:00 (00:00)
135 CRYPTARK Jun 20, 2017 $14.9961% (84%/80%)50,000 .. 100,0000%00:00 (00:00)
136 Fat Chicken Dec 4, 2014 $9.99N/A (N/A)0 .. 20,0000%00:00 (00:00)
137 Battle Group 2 Jun 13, 2014 $7.9961% (84%)50,000 .. 100,0000%00:00 (00:00)
138 Demons with Shotguns Apr 25, 2016 $9.9961% (84%)0 .. 20,0000%00:00 (00:00)
139 Foresight Nov 28, 2014 $4.99N/A (N/A)0 .. 20,0000%00:00 (00:00)
140 Neon Shadow Aug 25, 2016 $4.99N/A (N/A)0 .. 20,0000%00:00 (00:00)
141 Act of War: Direct Action Mar 14, 2005 $1.1961% (84%/82%)20,000 .. 50,0000%00:00 (00:00)
142 Legend (1994) Apr 1, 1994 $4.99N/A (N/A)0 .. 20,0002.86%09:53 (03:17)
143 Sudden Strike 2 Gold Aug 30, 2002 $5.9961% (84%)20,000 .. 50,0000%00:00 (00:00)
144 Super Furball May 13, 2014 $3.99N/A (N/A)0 .. 20,0000%00:00 (00:00)
145 Advanced Tactics Gold Apr 12, 2011 $29.9958% (83%)0 .. 20,0000%00:00 (00:00)
146 Ace of Protectors Jun 27, 2016 $1.9958% (83%)20,000 .. 50,0001.32%03:33 (01:11)
147 Weapon of Choice Sep 23, 2015 $4.99N/A (N/A)0 .. 20,0000%00:00 (00:00)
148 Orbital Gear Aug 7, 2014 $9.9958% (83%/59%)200,000 .. 500,0000.19%00:01 (00:00)
149 Crush Your Enemies Jul 13, 2016 $9.9958% (83%/63%)20,000 .. 50,0001.72%92:51 (30:57)
150 TY the Tasmanian Tiger 4 Sep 17, 2015 $5.9958% (83%)20,000 .. 50,0000%00:00 (00:00)
151 GIBZ Apr 7, 2017 $3.1958% (83%)0 .. 20,0000%00:00 (00:00)
152 Eador: Genesis Aug 7, 2009 $5.9958% (83%)50,000 .. 100,0000%00:00 (00:00)
153 NOBUNAGA'S AMBITION: Sphere of Influence Sep 1, 2015 $59.9958% (83%/70%)20,000 .. 50,0000%00:00 (00:00)
154 PixelJunk Shooter Ultimate Oct 21, 2015 $9.9956% (82%)0 .. 20,0000%00:00 (00:00)
155 Shadow Ops: Red Mercury Sep 17, 2004 $6.9956% (82%/61%)20,000 .. 50,0000%00:00 (00:00)
156 Square Brawl Oct 22, 2015 $4.9956% (82%)0 .. 20,0004.55%04:08 (01:22)
157 htoL#NiQ: The Firefly Diary / htoL#NiQ-ホタルノニッキ- May 18, 2016 $9.9956% (82%)20,000 .. 50,0000%00:00 (00:00)
158 Galaxy Admirals Jan 17, 2017 $1.9956% (82%)50,000 .. 100,0000.45%03:56 (01:18)
159 Yomi May 8, 2015 $14.9956% (82%)0 .. 20,0000%00:00 (00:00)
160 Rack N Ruin Sep 1, 2015 $9.9956% (82%)0 .. 20,0002.38%03:46 (01:15)
161 Bulletstorm: Full Clip Edition Apr 7, 2017 $39.9956% (82%/76%)50,000 .. 100,0002.46%00:19 (00:19)
162 ROD: Revolt Of Defense Aug 12, 2016 $0.9954% (81%)20,000 .. 50,0000%00:00 (00:00)
163 Fantasy Wars Aug 6, 2010 $4.9954% (81%/67%)50,000 .. 100,0000%00:00 (00:00)
164 Blade Arcus from Shining: Battle Arena Jul 28, 2016 $29.9954% (81%)0 .. 20,0000%00:00 (00:00)
165 Gun Metal Sep 23, 2003 $1.0154% (81%)200,000 .. 500,0000%00:00 (00:00)
166 Tiki Man Jun 4, 2015 $0.9954% (81%)20,000 .. 50,0000%00:00 (00:00)
167 Conflict Desert Storm Sep 13, 2002 $6.9954% (81%/56%)50,000 .. 100,0000%00:00 (00:00)
168 In Verbis Virtus Apr 3, 2015 $19.9954% (81%)50,000 .. 100,0001.06%00:42 (00:14)
169 Concealed Intent Aug 2, 2016 $14.99N/A (N/A)0 .. 20,0000%00:00 (00:00)
170 Supreme Ruler 2020 Gold Jun 17, 2008 $9.9954% (81%/65%)50,000 .. 100,0000%00:00 (00:00)
171 Toadled Sep 22, 2016 $0.9954% (81%)50,000 .. 100,0000%00:00 (00:00)
172 Run Rabbit Run Mar 31, 2016 $3.9951% (80%)0 .. 20,0002.56%02:30 (00:50)
173 Star Wolves 3: Civil War Mar 2, 2010 $4.9951% (80%)100,000 .. 200,0000%00:00 (00:00)
174 Romance of the Three Kingdoms Ⅴ with Power Up Kit / 三國志Ⅴ with パワーアップキット Apr 18, 2017 $19.99N/A (N/A)0 .. 20,0000%00:00 (00:00)
175 Bloodsports.TV Mar 30, 2015 $9.9951% (80%/69%)50,000 .. 100,0001.72%02:39 (02:37)
176 Child Of Ault Jan 24, 2017 $9.99N/A (N/A)0 .. 20,0000%00:00 (00:00)
177 Graviteam Tactics: Operation Star Mar 22, 2012 $29.9951% (80%)20,000 .. 50,0004.55%00:12 (00:04)
178 Locoland Nov 22, 2003 $4.9951% (80%)0 .. 20,0000%00:00 (00:00)
179 Perimeter May 21, 2004 $3.9951% (80%/77%)20,000 .. 50,0000%00:00 (00:00)
180 Envoy Mar 17, 2016 $4.9951% (80%)50,000 .. 100,0000%00:00 (00:00)
181 Defense Zone Jul 14, 2014 $2.99N/A (N/A)0 .. 20,0000%00:00 (00:00)
182 Conquest of Elysium 3 Oct 24, 2012 $9.9951% (80%)20,000 .. 50,0000%00:00 (00:00)
183 Hail to the King: Deathbat Oct 30, 2014 $5.9951% (80%)0 .. 20,0000%00:00 (00:00)
184 7,62 High Calibre Aug 24, 2007 $4.9951% (80%)50,000 .. 100,0000%00:00 (00:00)
185 Enemy Mind Jun 6, 2014 $9.9951% (80%)200,000 .. 500,0000.42%02:43 (01:08)
186 Monday Night Combat Jan 24, 2011 $4.9951% (80%/82%)200,000 .. 500,0000%00:00 (00:00)
187 Fleet Command May 15, 1999 $9.9951% (80%)50,000 .. 100,0000%00:00 (00:00)
188 Trigger Runners Mar 3, 2016 $1.9951% (80%)0 .. 20,0000%00:00 (00:00)
189 rymdkapsel Jan 30, 2014 $7.9951% (80%/77%)0 .. 20,0000%00:00 (00:00)
190 Legends of Callasia Jun 10, 2016 $14.9951% (80%)50,000 .. 100,0000%00:00 (00:00)
191 Zeno Clash 2 Apr 30, 2013 $14.9951% (80%)200,000 .. 500,0000.2%00:04 (00:01)
192 Disciples Sacred Lands Gold Oct 4, 1999 $7.9951% (80%)50,000 .. 100,0000%00:00 (00:00)
193 Junk Jack Nov 30, 2016 $14.9951% (80%)0 .. 20,0000%00:00 (00:00)
194 She Wants Me Dead May 13, 2016 $7.9951% (80%)0 .. 20,0000%00:00 (00:00)
195 Anomaly 2 May 15, 2013 $14.9949% (79%/77%)200,000 .. 500,0000.58%00:57 (00:37)
196 Protoshift Jan 15, 2016 $0.9949% (79%)0 .. 20,0001.85%04:03 (01:21)
197 Fate of the World Feb 28, 2011 $9.9949% (79%/70%)50,000 .. 100,0000%00:00 (00:00)
198 Interplanetary May 12, 2015 N/A49% (79%)100,000 .. 200,0001.26%02:51 (04:34)
199 The Legend of Dark Witch Dec 1, 2015 $4.9949% (79%)20,000 .. 50,0000%00:00 (00:00)
200 Umihara Kawase Shun: Steam Edition Nov 24, 2015 $11.99N/A (N/A)0 .. 20,0000%00:00 (00:00)
201 David. Mar 14, 2014 $1.9949% (79%)50,000 .. 100,0000%00:00 (00:00)
202 Fortified Feb 3, 2016 $14.9949% (79%)500,000 .. 1,000,0000.53%04:10 (02:55)
203 Age of Gladiators Feb 25, 2016 $9.9949% (79%)20,000 .. 50,0001.64%07:01 (02:20)
204 Making History: The Calm & the Storm Mar 13, 2007 $4.9949% (79%/70%)50,000 .. 100,0000%00:00 (00:00)
205 TASTEE: Lethal Tactics May 10, 2016 $14.9949% (79%)20,000 .. 50,0000%00:00 (00:00)
206 Demolition Inc. Sep 19, 2011 $5.9949% (79%)50,000 .. 100,0000%00:00 (00:00)
207 Nuclear Dawn Sep 26, 2011 $9.9949% (79%/71%)200,000 .. 500,0000.21%00:26 (00:08)
208 TRON RUN/r Feb 16, 2016 $19.9949% (79%)0 .. 20,0000%00:00 (00:00)
209 Gatling Gears Aug 30, 2011 $9.9949% (79%)20,000 .. 50,0000%00:00 (00:00)
210 Defense Zone 3 Ultra HD Dec 14, 2016 $2.9949% (79%)20,000 .. 50,0000%00:00 (00:00)
211 Pharaonic Apr 28, 2016 $14.9949% (79%)0 .. 20,0000%00:00 (00:00)
212 Bet On Soldier Sep 26, 2005 $7.9949% (79%)50,000 .. 100,0000.97%00:04 (00:01)
213 Ironcast Mar 26, 2015 $14.9949% (79%/75%)20,000 .. 50,0000%00:00 (00:00)
214 Caster Mar 19, 2009 $1.9949% (79%)200,000 .. 500,0000%00:00 (00:00)
215 Advent Rising Aug 9, 2005 $9.9949% (79%/70%)50,000 .. 100,0000%00:00 (00:00)
216 Vietnam ‘65 Mar 5, 2015 $9.9949% (79%/81%)20,000 .. 50,0000%00:00 (00:00)
217 Zombie Party Jun 10, 2016 $9.9947% (78%)100,000 .. 200,0000%00:00 (00:00)
218 Zombie Killtime Aug 4, 2015 $1.99N/A (N/A)0 .. 20,0000%00:00 (00:00)
219 Velocity 2X Aug 19, 2015 $19.99N/A (N/A)50,000 .. 100,0000%00:00 (00:00)
220 Aeon Command Jul 3, 2014 $2.9947% (78%)20,000 .. 50,0000%00:00 (00:00)
221 Age of Wonders Oct 2010 $1.4947% (78%)100,000 .. 200,0000%00:00 (00:00)
222 Tank Destroyer Mar 9, 2017 $2.9947% (78%)20,000 .. 50,0000%00:00 (00:00)
223 PAC-MAN and the Ghostly Adventures Oct 29, 2013 $19.9947% (78%)0 .. 20,0000%00:00 (00:00)
224 Mold on Pizza Sep 25, 2015 $5.9947% (78%)0 .. 20,0003.57%00:01 (00:00)
225 Starscape Mar 27, 2003 $7.9947% (78%)0 .. 20,0000%00:00 (00:00)
226 Klang Sep 22, 2016 $14.9947% (78%/71%)0 .. 20,0000%00:00 (00:00)
227 After The End: The Harvest Jun 2, 2017 $4.9947% (78%)20,000 .. 50,0000%00:00 (00:00)
228 Deadly 30 Jan 8, 2014 $4.9947% (78%)100,000 .. 200,0000.66%03:05 (02:03)
229 Cultures - 8th Wonder of the World Mar 26, 2015 $4.9947% (78%)50,000 .. 100,0000.65%04:32 (01:30)
230 Strike Suit Zero: Director's Cut Apr 8, 2014 $19.9947% (78%)20,000 .. 50,0000%00:00 (00:00)
231 Dead Rising 2: Off the Record Oct 11, 2011 $19.9947% (78%/66%)200,000 .. 500,0000.34%00:16 (00:10)
232 Anomaly Warzone Earth Mobile Campaign Nov 6, 2013 $4.9945% (77%)100,000 .. 200,0000.36%00:49 (00:16)
233 Warhammer 40,000: Armageddon Nov 26, 2014 $39.9945% (77%/68%)20,000 .. 50,0004.17%11:09 (03:43)
234 The Political Machine 2016 Feb 4, 2016 $9.9945% (77%)50,000 .. 100,0001.37%00:17 (00:09)
235 Blue Effect VR Sep 29, 2016 $14.9945% (77%)0 .. 20,0000%00:00 (00:00)
236 Dominions 3: The Awakening Sep 10, 2013 $19.9945% (77%/82%)0 .. 20,0000%00:00 (00:00)
237 Ninjahtic Jul 6, 2015 $1.9945% (77%)0 .. 20,0000%00:00 (00:00)
238 Making History II: The War of the World Jun 22, 2010 $14.9945% (77%/38%)20,000 .. 50,0000%00:00 (00:00)
239 Curse of the Crescent Isle DX Aug 21, 2015 $0.9945% (77%)0 .. 20,0000%00:00 (00:00)
240 Warlords Battlecry III May 17, 2004 $9.9945% (77%/73%)0 .. 20,0000%00:00 (00:00)
241 Heroes of Might & Magic V: Hammers of Fate Nov 14, 2006 $9.9945% (77%/66%)200,000 .. 500,0000%00:00 (00:00)
242 King of Dragon Pass Jul 28, 2015 $11.9945% (77%)20,000 .. 50,0000%00:00 (00:00)
243 Sky Gamblers: Storm Raiders Jan 7, 2015 $9.9945% (77%)0 .. 20,0000%00:00 (00:00)
244 McDROID Sep 5, 2014 $9.9945% (77%)0 .. 20,0000%00:00 (00:00)
245 Starchaser: Priestess of the Night Sky Jul 24, 2015 $9.99N/A (N/A)0 .. 20,00014.29%00:21 (00:07)
246 A Blind Legend Apr 7, 2016 $6.9945% (77%)0 .. 20,0000%00:00 (00:00)
247 Olympia Rising Jul 23, 2015 $4.9943% (76%)0 .. 20,0000%00:00 (00:00)
248 Mysterium: A Psychic Clue Game Jan 12, 2017 $3.9843% (76%)50,000 .. 100,0000.35%01:01 (00:20)
249 BloodRayne Sep 9, 2003 $9.9943% (76%/65%)50,000 .. 100,0000%00:00 (00:00)
250 Corgi Warlock Dec 3, 2015 $1.9943% (76%)20,000 .. 50,0000%00:00 (00:00)
251 Cashtronauts Sep 1, 2016 $2.9943% (76%)0 .. 20,0000%00:00 (00:00)
252 Jim Power -The Lost Dimension Dec 10, 1993 $4.99N/A (N/A)0 .. 20,0000%00:00 (00:00)
253 Dangerous Waters Feb 7, 2006 $14.9943% (76%/82%)50,000 .. 100,0000%00:00 (00:00)
254 Vector Strain Dec 9, 2015 $4.9943% (76%)20,000 .. 50,0001.75%04:37 (01:32)
255 Extravaganza Rising Jul 21, 2016 N/AN/A (N/A)20,000 .. 50,0000%00:00 (00:00)
256 Rocket Knight May 11, 2010 $14.9943% (76%/63%)0 .. 20,0000%00:00 (00:00)
257 A.R.E.S. Extinction Agenda EX Oct 3, 2014 $9.9943% (76%)0 .. 20,0002.38%00:06 (00:02)
258 Star Realms Mar 8, 2016 Free43% (76%)100,000 .. 200,0000%00:00 (00:00)
259 Painkiller Hell & Damnation Oct 31, 2012 $19.9943% (76%/64%)500,000 .. 1,000,0000.36%04:51 (03:13)
260 Deadlings: Rotten Edition Nov 11, 2014 $3.9943% (76%)50,000 .. 100,0000%00:00 (00:00)
261 Battlezone Gold Edition May 11, 2017 $34.9943% (76%)0 .. 20,0000%00:00 (00:00)
262 Perimeter: Emperor's Testament Aug 29, 2006 $3.99N/A (N/A/72%)20,000 .. 50,0001.75%00:02 (00:00)
263 Rocketbirds 2 Evolution Jan 26, 2017 $9.9941% (75%)20,000 .. 50,0000%00:00 (00:00)
264 CivCity: Rome Jul 24, 2006 $9.9941% (75%/67%)50,000 .. 100,0000%00:00 (00:00)
265 Civil War II Sep 17, 2013 $39.9941% (75%)0 .. 20,0000%00:00 (00:00)
266 Monster Monpiece Mar 14, 2017 $19.9941% (75%)0 .. 20,0000%00:00 (00:00)
267 Fist Puncher Jun 21, 2013 $9.9941% (75%/73%)20,000 .. 50,0002.5%04:40 (03:06)
268 Onechanbara Z2: Chaos Jun 2, 2016 $39.9941% (75%)0 .. 20,0000%00:00 (00:00)
269 Victory At Sea Aug 8, 2014 $24.9941% (75%)20,000 .. 50,0000%00:00 (00:00)
270 Chaser Aug 22, 2003 $4.9941% (75%/66%)50,000 .. 100,0000.78%00:09 (00:03)
271 Hunting Unlimited 2008 Sep 1, 2007 $9.99N/A (N/A)20,000 .. 50,0000%00:00 (00:00)
272 Z Jul 4, 2014 $6.9941% (75%)100,000 .. 200,0000.26%00:01 (00:00)
273 BossConstructor Oct 24, 2016 $14.9941% (75%)0 .. 20,0000%00:00 (00:00)
274 Battle Mages: Sign of Darkness Apr 13, 2006 $4.9941% (75%)20,000 .. 50,0004.76%04:42 (01:34)
275 NOBUNAGA’S AMBITION: Kakushin with Power Up Kit / 信長の野望・革新 with パワーアップキット Jun 25, 2015 $54.9941% (75%)20,000 .. 50,0000%00:00 (00:00)
276 Livelock Aug 30, 2016 $9.9941% (75%/73%)20,000 .. 50,0000%00:00 (00:00)
277 Bubsy Two-Fur Jan 1, 1993 $4.9941% (75%)0 .. 20,0000%00:00 (00:00)
278 Platformines Mar 28, 2014 $9.9941% (75%/67%)100,000 .. 200,0000%00:00 (00:00)
279 Star Hammer: The Vanguard Prophecy Jun 4, 2015 $19.9941% (75%/69%)0 .. 20,00016.67%00:47 (00:31)
280 Smithy Jun 3, 2016 $3.99N/A (N/A)50,000 .. 100,0000.47%04:03 (01:21)
281 WARSHIFT Oct 12, 2016 $6.4941% (75%)20,000 .. 50,0000%00:00 (00:00)
282 Heaven Forest NIGHTS Mar 13, 2017 $0.9941% (75%)100,000 .. 200,0000.61%04:02 (02:13)
283 Smell Of Death Jul 4, 2016 $9.9939% (74%)0 .. 20,0000%00:00 (00:00)
284 Master Reboot Oct 29, 2013 $14.9939% (74%/59%)50,000 .. 100,0000%00:00 (00:00)
285 Commander: The Great War Nov 12, 2012 $29.9939% (74%)0 .. 20,0000%00:00 (00:00)
286 Riddled Corpses Jun 2, 2015 $7.9939% (74%)20,000 .. 50,0001.35%00:09 (00:03)
287 Battle Time Sep 29, 2016 $0.9939% (74%)50,000 .. 100,0001.9%03:06 (03:06)
288 Viktor Jun 13, 2014 $7.9939% (74%)20,000 .. 50,0000%00:00 (00:00)
289 TableTop Soccer Apr 22, 2016 $0.9939% (74%)0 .. 20,0000%00:00 (00:00)
290 Distant Worlds: Universe May 23, 2014 $59.9939% (74%/81%)50,000 .. 100,0000%00:00 (00:00)
291 Ubersoldier II Jul 22, 2008 $9.9939% (74%/62%)100,000 .. 200,0000%00:00 (00:00)
292 Spirits of Xanadu Mar 26, 2015 $4.9939% (74%)20,000 .. 50,0001.54%00:51 (00:17)
293 Albino Lullaby: Episode 1 Sep 15, 2015 $9.9939% (74%)20,000 .. 50,0000%00:00 (00:00)
294 Battle Fleet 2 Nov 20, 2014 $14.9938% (73%)20,000 .. 50,0000%00:00 (00:00)
295 Making History: The Great War Jan 29, 2015 $29.9938% (73%)20,000 .. 50,0000%00:00 (00:00)
296 Death by Game Show Jan 22, 2016 $9.9938% (73%)20,000 .. 50,0000%00:00 (00:00)
297 Cuban Missile Crisis May 6, 2005 $4.9938% (73%)20,000 .. 50,0000%00:00 (00:00)
298 Supreme Ruler Ultimate Oct 17, 2014 $19.9938% (73%)20,000 .. 50,00014.29%00:20 (00:18)
299 FEIST Jul 23, 2015 $9.9938% (73%/65%)20,000 .. 50,0000%00:00 (00:00)
300 Divinity: Dragon Commander Aug 6, 2013 $39.9938% (73%)200,000 .. 500,0000%00:00 (00:00)
301 Gold Rush! Anniversary Nov 7, 2014 $5.99N/A (N/A)100,000 .. 200,0000%00:00 (00:00)
302 Sid Meier’s Ace Patrol Aug 27, 2013 $4.9938% (73%)500,000 .. 1,000,0000.2%00:01 (00:00)
303 Hot Tin Roof: The Cat That Wore A Fedora Feb 20, 2015 $14.9938% (73%/66%)100,000 .. 200,0000%00:00 (00:00)
304 Rex Rocket Aug 5, 2014 $4.9938% (73%)20,000 .. 50,0000%00:00 (00:00)
305 AirMech Command Mar 8, 2017 $19.9938% (73%)0 .. 20,0000%00:00 (00:00)
306 The Aquatic Adventure of the Last Human Jan 19, 2016 $9.9938% (73%/76%)0 .. 20,0000%00:00 (00:00)
307 Vampire of the Sands Jul 17, 2015 $4.9938% (73%)20,000 .. 50,0000%00:00 (00:00)
308 FIVE: Champions of Canaan Sep 27, 2016 $3.9938% (73%)0 .. 20,0003.57%07:19 (02:26)
309 Pick a Hero Jun 9, 2016 $0.99N/A (N/A)0 .. 20,0000%00:00 (00:00)
310 Wildlife Park 2 - Crazy Zoo Mar 30, 2007 $3.99N/A (N/A)0 .. 20,0000%00:00 (00:00)
311 Retrovirus Jan 31, 2013 $9.9936% (72%/70%)20,000 .. 50,0000%00:00 (00:00)
312 Cast of the Seven Godsends - Redux Jul 20, 2015 $9.9936% (72%)20,000 .. 50,0000%00:00 (00:00)
313 King Arthur - The Role-playing Wargame Nov 24, 2009 $9.9936% (72%)200,000 .. 500,0000%00:00 (00:00)
314 Phoning Home Feb 7, 2017 $19.9936% (72%/61%)20,000 .. 50,0000%00:00 (00:00)
315 Heroes of Arca Feb 16, 2017 Free36% (72%)0 .. 20,0000%00:00 (00:00)
316 Disney Planes Aug 6, 2013 $19.99N/A (N/A)0 .. 20,0000%00:00 (00:00)
317 Deadnaut Nov 27, 2014 $9.9936% (72%)0 .. 20,0000%00:00 (00:00)
318 Wyv and Keep: The Temple of the Lost Idol Aug 8, 2014 $14.9936% (72%)20,000 .. 50,0000%00:00 (00:00)
319 Elliot Quest Nov 10, 2014 $9.9936% (72%)20,000 .. 50,0000%00:00 (00:00)
320 Pike and Shot : Campaigns Aug 13, 2015 $39.9936% (72%)0 .. 20,0000%00:00 (00:00)
321 Elven Legacy Apr 7, 2009 $4.9936% (72%/71%)50,000 .. 100,0000%00:00 (00:00)
322 Rise & Shine Jan 13, 2017 $14.9936% (72%)20,000 .. 50,0000%00:00 (00:00)
323 Auro: A Monster-Bumping Adventure Apr 13, 2016 $6.9936% (72%)0 .. 20,0000%00:00 (00:00)
324 Lost Planet: Extreme Condition Jun 26, 2007 $14.9936% (72%/66%)200,000 .. 500,0000%00:00 (00:00)
325 VRZ: Torment Jun 9, 2016 $9.9936% (72%)0 .. 20,0000%00:00 (00:00)
326 Pongo May 14, 2015 $0.9936% (72%)50,000 .. 100,0000.76%04:36 (01:32)
327 Codex of Victory Mar 16, 2017 $14.9936% (72%)0 .. 20,0000%00:00 (00:00)
328 Fatal Fight Jun 10, 2016 $2.9936% (72%)0 .. 20,0000%00:00 (00:00)
329 Airship Dragoon Aug 26, 2014 $19.99N/A (N/A)0 .. 20,0000%00:00 (00:00)
330 Civil War: Battle of Petersburg Feb 8, 2017 $0.6236% (72%)0 .. 20,0000%00:00 (00:00)
331 LEGO Indiana Jones 2: The Adventure Continues Feb 18, 2010 $19.9936% (72%/66%)50,000 .. 100,0000%00:00 (00:00)
332 Banzai Escape Mar 16, 2016 $5.9934% (71%)20,000 .. 50,0000%00:00 (00:00)
333 A.R.E.S.: Extinction Agenda Jan 20, 2011 $4.9934% (71%/68%)100,000 .. 200,0000%00:00 (00:00)
334 rooMaze Mar 3, 2017 $1.9934% (71%)100,000 .. 200,0000%00:00 (00:00)
335 There Came an Echo Feb 24, 2015 $14.9934% (71%/58%)20,000 .. 50,0000%00:00 (00:00)
336 Warp Mar 21, 2012 $9.9934% (71%)20,000 .. 50,0000%00:00 (00:00)
337 REDCON Apr 22, 2016 $5.9934% (71%)0 .. 20,0000%00:00 (00:00)
338 Cross of the Dutchman Sep 10, 2015 $8.9934% (71%/59%)20,000 .. 50,0000%00:00 (00:00)
339 The Last Federation Apr 18, 2014 $3.9934% (71%/72%)50,000 .. 100,0000%00:00 (00:00)
340 Tom Clancy's EndWar Feb 25, 2009 $9.9934% (71%/68%)50,000 .. 100,0000%00:00 (00:00)
341 Zoo Empire Aug 1, 2004 $6.99N/A (N/A/59%)0 .. 20,0000%00:00 (00:00)
342 Brigade E5: New Jagged Union Oct 17, 2006 $3.9933% (70%/41%)0 .. 20,0000%00:00 (00:00)
343 Revolution Under Siege Gold Jul 2, 2015 $24.9933% (70%)0 .. 20,0000%00:00 (00:00)
344 BitMaster Oct 12, 2016 $2.9933% (70%)200,000 .. 500,0000%00:00 (00:00)
345 Strategy & Tactics: Wargame Collection Apr 22, 2016 $9.9933% (70%)20,000 .. 50,0002.13%01:04 (00:42)
346 Jagged Alliance 2 - Wildfire Mar 8, 2004 $6.9931% (69%)200,000 .. 500,0001.01%05:40 (06:26)
347 The Superfluous May 19, 2017 $4.99N/A (N/A)0 .. 20,0000%00:00 (00:00)
348 Space Colony: Steam Edition Apr 30, 2015 $14.9931% (69%/74%)20,000 .. 50,0000%00:00 (00:00)
349 Incandescent Jun 30, 2015 $0.9931% (69%)20,000 .. 50,0000%00:00 (00:00)
350 Little King's Story Aug 5, 2016 $19.9931% (69%/62%)0 .. 20,0000%00:00 (00:00)
351 Lux Delux May 1, 2015 $4.9931% (69%)20,000 .. 50,0000%00:00 (00:00)
352 8-Bit Commando Jul 27, 2011 $2.9931% (69%)50,000 .. 100,0000%00:00 (00:00)
353 Collapse Sep 25, 2008 $19.9931% (69%)50,000 .. 100,0000%00:00 (00:00)
354 Sol 0: Mars Colonization Jan 15, 2016 $3.9931% (69%)20,000 .. 50,0000%00:00 (00:00)
355 Panzer Tactics HD May 22, 2014 $9.9931% (69%/69%)20,000 .. 50,0000%00:00 (00:00)
356 The Nightmare Cooperative Jul 16, 2014 $4.9931% (69%)50,000 .. 100,0000%00:00 (00:00)
357 Royal Defense Nov 6, 2014 $4.9930% (68%)50,000 .. 100,0000%00:00 (00:00)
358 YAIBA: NINJA GAIDEN Z Mar 21, 2014 $29.9930% (68%/49%)20,000 .. 50,0000%00:00 (00:00)
359 The Living Dungeon Nov 2, 2015 $9.9930% (68%)0 .. 20,0000%00:00 (00:00)
360 FIVE: Guardians of David Nov 24, 2015 $9.9930% (68%/66%)20,000 .. 50,0000%00:00 (00:00)
361 Pigmentone Jul 8, 2016 $1.99N/A (N/A)0 .. 20,0000%00:00 (00:00)
362 Guns n Zombies Oct 30, 2014 $7.9930% (68%)100,000 .. 200,0000.99%02:02 (01:20)
363 Othello Aug 5, 2016 $2.4930% (68%)0 .. 20,0000%00:00 (00:00)
364 ManaCollect Apr 17, 2015 $1.7430% (68%)0 .. 20,0000%00:00 (00:00)
365 Bedlam Oct 13, 2015 $12.9930% (68%/54%)100,000 .. 200,0000%00:00 (00:00)
366 Warrior Kings Apr 13, 2002 $9.9930% (68%/73%)20,000 .. 50,0000%00:00 (00:00)
367 The Hive Aug 25, 2016 $9.9930% (68%)20,000 .. 50,0000%00:00 (00:00)
368 Scourge of War: Waterloo Nov 19, 2015 $49.9930% (68%)0 .. 20,0000%00:00 (00:00)
369 Toren May 11, 2015 $9.9928% (67%/57%)50,000 .. 100,0001.26%03:29 (02:19)
370 Warhammer 40,000: Armageddon - Da Orks Aug 18, 2016 $19.99N/A (N/A)0 .. 20,0000%00:00 (00:00)
371 Zafehouse: Diaries Sep 6, 2013 $1.9928% (67%)50,000 .. 100,0000%00:00 (00:00)
372 Infinity Runner Jul 14, 2014 $6.9928% (67%/56%)0 .. 20,0000%00:00 (00:00)
373 Space Food Truck Mar 25, 2016 $9.9928% (67%)20,000 .. 50,0006.25%14:36 (04:52)
374 Toy Odyssey: The Lost and Found Sep 20, 2016 $14.9928% (67%/66%)20,000 .. 50,0000.51%01:57 (00:39)
375 Kill The Plumber Dec 31, 2015 $4.9928% (67%)0 .. 20,0000%00:00 (00:00)
376 Stonerid Dec 18, 2013 $4.9928% (67%)20,000 .. 50,0000.81%00:02 (00:00)
377 Chainsaw Warrior Oct 7, 2013 $4.9928% (67%)100,000 .. 200,0000%00:00 (00:00)
378 Survivor Squad: Gauntlets Nov 16, 2015 $4.9928% (67%)20,000 .. 50,0001.85%06:09 (02:03)
379 March of the Eagles Feb 18, 2013 $19.9928% (67%/71%)50,000 .. 100,0000%00:00 (00:00)
380 Fair Strike Feb 5, 2004 $3.99N/A (N/A/56%)0 .. 20,00012.5%18:17 (06:05)
381 Commander Cool 2 Dec 17, 2015 $2.9927% (66%)20,000 .. 50,0002.13%02:00 (01:12)
382 Sky To Fly: Faster Than Wind Mar 25, 2016 $3.9927% (66%)0 .. 20,0000%00:00 (00:00)
383 Urban Pirate Jun 17, 2016 $6.99N/A (N/A)0 .. 20,0000%00:00 (00:00)
384 Alea Jacta Est Sep 27, 2012 $24.9927% (66%)20,000 .. 50,0000%00:00 (00:00)
385 1775: Rebellion Sep 29, 2016 $24.99N/A (N/A)0 .. 20,0004.84%01:18 (00:59)
386 Quick Slick Deadly Sep 21, 2015 $1.9927% (66%)20,000 .. 50,0000%00:00 (00:00)
387 Zombie City Defense 2 Aug 19, 2016 $9.9927% (66%)0 .. 20,0000%00:00 (00:00)
388 RISK: Factions Mar 8, 2011 $9.9927% (66%/77%)50,000 .. 100,0001.69%09:23 (03:07)
389 Nomad Fleet Jul 14, 2015 $9.9927% (66%)20,000 .. 50,0000%00:00 (00:00)
390 Assassin’s Creed Chronicles: India Jan 12, 2016 $9.9927% (66%)50,000 .. 100,0000%00:00 (00:00)
391 Sengoku Sep 15, 2011 $9.9927% (66%/70%)100,000 .. 200,0000.85%02:33 (00:51)
392 Mad Combat Marines Jul 13, 2016 $0.9927% (66%)20,000 .. 50,0000%00:00 (00:00)
393 Scourge: Outbreak Apr 2, 2014 $7.9927% (66%)100,000 .. 200,0000%00:00 (00:00)
394 Zombie Camp Aug 1, 2016 $1.99N/A (N/A)0 .. 20,0000%00:00 (00:00)
395 1849 May 8, 2014 $14.9927% (66%)20,000 .. 50,0000%00:00 (00:00)
396 Disney Pirates of the Caribbean: At Worlds End May 22, 2007 $19.9925% (65%)0 .. 20,0000%00:00 (00:00)
397 7th Legion Jan 1, 1997 $6.9925% (65%)20,000 .. 50,0000%00:00 (00:00)
398 Theatre of War 2: Africa 1943 Apr 24, 2009 $4.9925% (65%/63%)100,000 .. 200,0000%00:00 (00:00)
399 Ground Breakers Jun 15, 2016 $4.99N/A (N/A)0 .. 20,0000%00:00 (00:00)
400 Zombie Tycoon 2: Brainhov's Revenge Dec 9, 2013 $4.9925% (65%)50,000 .. 100,0000%00:00 (00:00)
401 The Seven Years War (1756-1763) Oct 30, 2015 $19.9925% (65%)0 .. 20,0000%00:00 (00:00)
402 Marauder Sep 10, 2009 $9.9925% (65%)50,000 .. 100,0002.63%00:05 (00:01)
403 Men of War: Condemned Heroes Apr 12, 2012 $7.9925% (65%/57%)100,000 .. 200,0000%00:00 (00:00)
404 Frozen Synapse Prime Nov 14, 2014 $24.9924% (64%/83%)100,000 .. 200,0000.88%01:17 (00:50)
405 Zoo Rampage Jul 9, 2014 $3.9924% (64%)0 .. 20,0000%00:00 (00:00)
406 Kaiju-A-GoGo Apr 23, 2015 $9.9924% (64%)20,000 .. 50,0000%00:00 (00:00)
407 Theatre of War 2: Kursk 1943 Mar 9, 2010 $4.9924% (64%)50,000 .. 100,0000.96%01:37 (00:32)
408 Hunters Of The Dead Sep 4, 2014 $4.9924% (64%)20,000 .. 50,0000%00:00 (00:00)
409 Devil's Dare 悪魔の挑戦 Oct 21, 2014 $12.9924% (64%)20,000 .. 50,0000%00:00 (00:00)
410 Revenge of Roger Rouge Apr 22, 2016 $0.99N/A (N/A)20,000 .. 50,0000%00:00 (00:00)
411 Jagged Alliance: Crossfire Aug 24, 2012 $14.9924% (64%/63%)100,000 .. 200,0000%00:00 (00:00)
412 Link Apr 22, 2016 $4.99N/A (N/A)0 .. 20,0000%00:00 (00:00)
413 Warlock 2: The Exiled Apr 10, 2014 $19.9924% (64%/73%)50,000 .. 100,0001.39%02:56 (00:58)
414 A Game of Dwarves Oct 23, 2012 $9.9923% (63%/60%)50,000 .. 100,0000.91%00:04 (00:01)
415 Pixel Boy and the Ever Expanding Dungeon May 30, 2014 $0.9923% (63%)20,000 .. 50,0000%00:00 (00:00)
416 Port Royale 2 Apr 30, 2004 $4.9923% (63%/75%)50,000 .. 100,0000%00:00 (00:00)
417 Battle Worlds: Kronos Nov 4, 2013 $19.9923% (63%/71%)20,000 .. 50,0004%07:17 (02:25)
418 Beasts Battle Jun 15, 2016 $1.9923% (63%)0 .. 20,0000%00:00 (00:00)
419 Malebolgia May 6, 2015 $12.9923% (63%)0 .. 20,0000%00:00 (00:00)
420 Will Fight for Food: Super Actual Sellout: Game of the Hour Apr 22, 2015 $5.99N/A (N/A)0 .. 20,0000%00:00 (00:00)
421 Platypus II Mar 17, 2007 $6.9923% (63%)200,000 .. 500,0000.15%00:03 (00:01)
422 Double Dragon IV Jan 30, 2017 $6.9923% (63%/50%)0 .. 20,00010%12:05 (04:01)
423 The Few Jun 18, 2014 $7.9923% (63%)20,000 .. 50,0000%00:00 (00:00)
424 Overruled! Sep 15, 2015 $12.99N/A (N/A)20,000 .. 50,0000%00:00 (00:00)
425 To End All Wars Aug 29, 2014 $39.9922% (62%/71%)0 .. 20,0000%00:00 (00:00)
426 Rise: Battle Lines Nov 17, 2015 $1.9922% (62%)0 .. 20,0000%00:00 (00:00)
427 SPACECOM Sep 17, 2014 $9.9922% (62%/68%)100,000 .. 200,0002.51%01:39 (01:50)
428 Goblin Defenders: Steel‘n’ Wood Aug 21, 2013 $2.9922% (62%)20,000 .. 50,0000%00:00 (00:00)
429 4089: Ghost Within Jan 9, 2015 $5.9922% (62%)0 .. 20,0000%00:00 (00:00)
430 Spirit of War Mar 12, 2015 $9.9922% (62%)20,000 .. 50,0000%00:00 (00:00)
431 UnSummoning: the Spectral Horde Dec 21, 2015 FreeN/A (N/A)0 .. 20,0000%00:00 (00:00)
432 My Super Tower 2 Jan 27, 2017 $0.4922% (62%)0 .. 20,0000%00:00 (00:00)
433 Sorcerer King: Rivals Sep 22, 2016 $13.4922% (62%)20,000 .. 50,0000%00:00 (00:00)
434 Desert Ashes Nov 10, 2014 $4.99N/A (N/A)20,000 .. 50,0001.22%00:01 (00:00)
435 Hyperspace Pinball Sep 30, 2015 $2.99N/A (N/A)0 .. 20,0000%00:00 (00:00)
436 Disney Epic Mickey 2: The Power of Two Nov 18, 2012 $19.9922% (62%)20,000 .. 50,0003.85%00:37 (00:12)
437 Freight Tycoon Inc. Aug 15, 2007 $4.9921% (61%)20,000 .. 50,0000%00:00 (00:00)
438 Disciples III - Renaissance Steam Special Edition Jul 16, 2010 $14.9921% (61%/56%)100,000 .. 200,0000%00:00 (00:00)
439 Men of War: Vietnam Sep 8, 2011 $7.9921% (61%/68%)100,000 .. 200,0000.62%00:10 (00:03)
440 Purgatory Jun 22, 2016 $0.9921% (61%)200,000 .. 500,0000.07%03:31 (01:10)
441 War, the Game Jan 12, 2015 $6.9921% (61%/65%)20,000 .. 50,0000%00:00 (00:00)
442 Spice Road Apr 24, 2014 $19.9921% (61%)0 .. 20,0000%00:00 (00:00)
443 Call of Duty: Black Ops - Mac Edition Sep 27, 2012 $19.9921% (61%)50,000 .. 100,0000%00:00 (00:00)
444 Bombshell Jan 29, 2016 $34.9921% (61%)20,000 .. 50,0007.04%02:59 (03:23)
445 Legions of Steel Jul 16, 2015 $19.99N/A (N/A/64%)0 .. 20,0000%00:00 (00:00)
446 Supreme Ruler: Cold War Jul 29, 2011 $9.9921% (61%/63%)20,000 .. 50,0000%00:00 (00:00)
447 Gnumz: Masters of Defense Dec 21, 2015 $4.9921% (61%)20,000 .. 50,0000%00:00 (00:00)
448 Woolfe - The Red Hood Diaries Mar 17, 2015 $9.9919% (60%/55%)50,000 .. 100,0000.91%01:44 (00:34)
449 Assault on Arnhem Mar 11, 2016 $9.99N/A (N/A)0 .. 20,0002.22%02:38 (00:52)
450 Flashback Oct 1, 2013 $9.9919% (60%)20,000 .. 50,0000%00:00 (00:00)
451 Close Combat - Panthers in the Fog Nov 19, 2012 $39.9919% (60%)0 .. 20,0000%00:00 (00:00)
452 Defend Your Crypt Jul 21, 2016 $2.99N/A (N/A)0 .. 20,0000%00:00 (00:00)
453 Hybrid Wars Sep 29, 2016 $6.9919% (60%/54%)0 .. 20,0000%00:00 (00:00)
454 Merchants of Kaidan Nov 10, 2014 $14.9919% (60%)100,000 .. 200,0000.23%00:05 (00:01)
455 BattleLore: Command Nov 25, 2014 $6.9919% (60%)0 .. 20,0000%00:00 (00:00)
456 NOBUNAGA'S AMBITION: Sphere of Influence - Ascension / 信長の野望・創造 戦国立志伝 Mar 23, 2016 $59.9919% (60%)100,000 .. 200,0000%00:00 (00:00)
457 Patrician IV - Steam Special Edition Sep 17, 2010 $14.9918% (59%/66%)100,000 .. 200,0000%00:00 (00:00)
458 Skyshine's BEDLAM Sep 16, 2015 $19.9918% (59%/67%)20,000 .. 50,0000%00:00 (00:00)
459 Prospekt Feb 18, 2016 $9.9918% (59%)20,000 .. 50,0000%00:00 (00:00)
460 Antisquad Oct 31, 2014 $5.9918% (59%)50,000 .. 100,0000%00:00 (00:00)
461 Battleplan: American Civil War Jul 4, 2014 $9.9918% (59%/66%)100,000 .. 200,0000.2%03:47 (01:15)
462 Quarantine Feb 9, 2017 $9.9918% (59%)0 .. 20,0000%00:00 (00:00)
463 Armada 2526 Gold Edition Feb 28, 2013 $19.9918% (59%/66%)20,000 .. 50,0000%00:00 (00:00)
464 7 Grand Steps: What Ancients Begat Jun 7, 2013 $19.9918% (59%)100,000 .. 200,0000%00:00 (00:00)
465 Code of Princess Apr 14, 2016 $14.9918% (59%/53%)0 .. 20,0000%00:00 (00:00)
466 E.T. Armies Mar 3, 2016 $14.9918% (59%/54%)0 .. 20,0000%00:00 (00:00)
467 Ninjahtic Mind Tricks Jul 16, 2015 $1.99N/A (N/A)0 .. 20,0000%00:00 (00:00)
468 Wanderlust Adventures Aug 10, 2015 $9.9918% (59%)20,000 .. 50,0000%00:00 (00:00)
469 Heavy Fire: Afghanistan Aug 15, 2014 $2.9918% (59%)20,000 .. 50,0000%00:00 (00:00)
470 Sir! I'd Like To Report A Bug! Oct 19, 2015 $1.99N/A (N/A)0 .. 20,0008.33%03:46 (01:15)
471 Prophour23 Oct 22, 2014 $9.99N/A (N/A)0 .. 20,0001.69%04:03 (01:21)
472 Check vs Mate Aug 16, 2012 $19.9917% (58%/69%)0 .. 20,0000%00:00 (00:00)
473 Woodle Tree 2: Worlds Sep 16, 2016 $3.9917% (58%)50,000 .. 100,0000.65%00:02 (00:00)
474 Cemetery Warrior 3 Feb 3, 2017 $0.9917% (58%)50,000 .. 100,0000%00:00 (00:00)
475 Gates of Horizon Dec 18, 2014 $9.9917% (58%)0 .. 20,0004.76%00:01 (00:00)
476 Ceres Oct 16, 2015 $19.9917% (58%/74%)0 .. 20,0000%00:00 (00:00)
477 Life in Bunker Feb 25, 2016 $15.9917% (58%)0 .. 20,0000%00:00 (00:00)
478 Colonial Conquest Jul 28, 2015 $9.9917% (58%)0 .. 20,0000%00:00 (00:00)
479 Unearthed: Trail of Ibn Battuta - Episode 1 - Gold Edition Jan 3, 2014 $4.9916% (57%)20,000 .. 50,0000%00:00 (00:00)
480 DreamBreak Jul 21, 2016 $6.9916% (57%/46%)20,000 .. 50,0000%00:00 (00:00)
481 Delve Deeper Sep 24, 2010 $4.9915% (56%)50,000 .. 100,0000%00:00 (00:00)
482 Stay Dead Evolution Feb 4, 2015 $5.9915% (56%)20,000 .. 50,0000%00:00 (00:00)
483 Story Of the Survivor Feb 17, 2016 $2.99N/A (N/A)50,000 .. 100,0000%00:00 (00:00)
484 Abalone Apr 23, 2014 $6.9915% (56%)20,000 .. 50,0000%00:00 (00:00)
485 Rise of Venice Sep 27, 2013 $19.9915% (56%/66%)50,000 .. 100,0001.43%00:02 (00:00)
486 Crazy Forest Jul 6, 2016 $4.9915% (56%)100,000 .. 200,0000%00:00 (00:00)
487 Horizon Feb 6, 2014 $29.9915% (56%/58%)50,000 .. 100,0000%00:00 (00:00)
488 Super Helmets on Fire DX Ultra Edition Plus Alpha Feb 15, 2016 $0.99N/A (N/A)0 .. 20,0000%00:00 (00:00)
489 Gettysburg: The Tide Turns Jul 14, 2017 $9.99N/A (N/A)0 .. 20,0000%00:00 (00:00)
490 VR Journey Dec 15, 2016 $2.99N/A (N/A)20,000 .. 50,0000.87%02:03 (00:41)
491 reconquest Dec 16, 2016 $4.7915% (55%)0 .. 20,0000%00:00 (00:00)
492 Pain Train Jan 11, 2017 $0.9915% (55%)50,000 .. 100,0000%00:00 (00:00)
493 Adventure World Aug 2, 2016 $4.99N/A (N/A)0 .. 20,0000%00:00 (00:00)
494 Urja Jan 9, 2015 $9.9914% (54%)20,000 .. 50,0000%00:00 (00:00)
495 RESCUE 2: Everyday Heroes Jun 3, 2015 $19.9914% (54%)20,000 .. 50,0000%00:00 (00:00)
496 Crusaders: Thy Kingdom Come Oct 8, 2009 $9.99N/A (N/A)0 .. 20,0000%00:00 (00:00)
497 Dawn of Andromeda May 4, 2017 $29.9914% (54%/70%)0 .. 20,0000%00:00 (00:00)
498 BC Kings Sep 15, 2008 $4.9914% (54%)20,000 .. 50,0000%00:00 (00:00)
499 Tic-Toc-Tower Sep 28, 2015 $2.9913% (53%)0 .. 20,0000%00:00 (00:00)
500 Castle Werewolf 3D Feb 7, 2017 $2.9913% (53%)50,000 .. 100,0000.26%00:19 (00:06)
501 Smugglers 5 Apr 11, 2014 $6.9913% (53%)20,000 .. 50,0000%00:00 (00:00)
502 Wickland Nov 14, 2014 $0.9913% (53%)50,000 .. 100,0000%00:00 (00:00)
503 Armada 2526 Jun 10, 2010 $14.99N/A (N/A/66%)0 .. 20,0000%00:00 (00:00)
504 MDK2 HD Jul 30, 2012 $14.9913% (53%/73%)0 .. 20,0000%00:00 (00:00)
505 Sovereignty: Crown of Kings Feb 2, 2017 $24.9913% (53%)0 .. 20,0000%00:00 (00:00)
506 Weather Lord: The Successor's Path Apr 8, 2015 $4.99N/A (N/A)0 .. 20,0000%00:00 (00:00)
507 Meridian: Squad 22 Aug 11, 2016 $14.99N/A (N/A)0 .. 20,0000%00:00 (00:00)
508 Grim Seventh Jan 20, 2017 FreeN/A (N/A)0 .. 20,0000%00:00 (00:00)
509 Dusty Revenge:Co-Op Edition Feb 17, 2014 $14.9912% (52%)50,000 .. 100,0000%00:00 (00:00)
510 The Stalin Subway Oct 5, 2006 $3.9912% (52%)20,000 .. 50,0000%00:00 (00:00)
511 MinosMaze - The Minotaur's Labyrinth May 1, 2017 $4.99N/A (N/A)0 .. 20,0002.38%00:01 (00:00)
512 Biodrone Battle Jul 16, 2015 $1.9912% (51%)100,000 .. 200,0000%00:00 (00:00)
513 Royal Bounty HD Aug 10, 2015 $2.9912% (51%)0 .. 20,0005.26%00:01 (00:00)
514 Nightside Apr 2, 2015 $4.9912% (51%)20,000 .. 50,0000%00:00 (00:00)
515 Meridian: New World Apr 4, 2014 $6.9912% (51%/43%)100,000 .. 200,0000.65%00:49 (00:16)
516 Chronostorm: Siberian Border Apr 2, 2009 $0.99N/A (N/A)0 .. 20,0000%00:00 (00:00)
517 Guncraft Aug 9, 2013 $14.9911% (50%/73%)100,000 .. 200,0000%00:00 (00:00)
518 Aggression: Europe Under Fire May 10, 2007 $9.9911% (50%)50,000 .. 100,0000%00:00 (00:00)
519 No Pineapple Left Behind Feb 18, 2016 $6.99N/A (N/A/59%)0 .. 20,0000%00:00 (00:00)
520 Defence to death May 11, 2017 $1.99N/A (N/A)50,000 .. 100,0000.27%04:18 (01:26)
521 Scapeland Mar 31, 2016 $3.9911% (50%)0 .. 20,0000%00:00 (00:00)
522 Albedo: Eyes from Outer Space Apr 10, 2015 $14.9911% (49%/66%)50,000 .. 100,0000%00:00 (00:00)
523 Kidnapped Aug 4, 2015 $2.9911% (49%)100,000 .. 200,0000.28%00:41 (00:13)
524 Rubber and Lead Sep 4, 2015 $4.9910% (48%)20,000 .. 50,0000%00:00 (00:00)
525 Star Traders: 4X Empires Nov 18, 2014 $9.99N/A (N/A)0 .. 20,0006.25%02:18 (00:46)
526 Marvel: Ultimate Alliance 2 Jul 26, 2016 N/A10% (48%)0 .. 20,0000%00:00 (00:00)
527 Synonymy Dec 12, 2014 $1.9910% (48%)0 .. 20,0000%00:00 (00:00)
528 Z Steel Soldiers Aug 1, 2014 $12.999% (47%)50,000 .. 100,0000.93%04:16 (01:50)
529 Odd||Even Apr 6, 2016 $0.999% (47%)20,000 .. 50,0000%00:00 (00:00)
530 Hell Nov 13, 2014 $29.99N/A (N/A)0 .. 20,0000%00:00 (00:00)
531 The Stalin Subway: Red Veil Oct 5, 2006 $2.999% (47%)50,000 .. 100,0000%00:00 (00:00)
532 Blasting Agent: Ultimate Edition Aug 17, 2016 $2.99N/A (N/A)0 .. 20,0000%00:00 (00:00)
533 Aegis Oct 6, 2016 $2.99N/A (N/A)0 .. 20,0000%00:00 (00:00)
534 Disposable Heroes Oct 1, 2015 $4.999% (47%)20,000 .. 50,0000%00:00 (00:00)
535 Hero Generations Apr 10, 2015 $5.999% (47%)0 .. 20,0000%00:00 (00:00)
536 PeriAreion Feb 19, 2015 $5.99N/A (N/A)0 .. 20,0000%00:00 (00:00)
537 Carrier Command: Gaea Mission Sep 28, 2012 $32.999% (46%/60%)200,000 .. 500,0000.48%00:48 (00:16)
538 HitBox Jan 30, 2017 Free9% (46%)0 .. 20,0002.33%00:09 (00:03)
539 Megamagic: Wizards of the Neon Age Apr 20, 2016 $9.999% (46%/67%)20,000 .. 50,0001.09%02:03 (00:41)
540 Pride of Nations Jun 8, 2011 $19.999% (46%/70%)20,000 .. 50,0000%00:00 (00:00)
541 Crossfire: Dungeons Jan 15, 2007 $3.999% (46%)0 .. 20,0000%00:00 (00:00)
542 World War 2: Time of Wrath Jun 15, 2009 $4.999% (46%)20,000 .. 50,0000%00:00 (00:00)
543 Magic Quest May 6, 2016 $1.99N/A (N/A)50,000 .. 100,0000%00:00 (00:00)
544 ALONE IN SPACE Feb 27, 2016 $9.999% (46%)0 .. 20,0000%00:00 (00:00)
545 The Campaign Series: Fall Weiss May 30, 2014 $14.998% (45%)20,000 .. 50,0000%00:00 (00:00)
546 Impire Feb 14, 2013 $19.998% (45%/45%)100,000 .. 200,0000%00:00 (00:00)
547 Skyward Collapse May 23, 2013 $0.998% (45%/64%)100,000 .. 200,0000%00:00 (00:00)
548 Battle Chess: Game of Kings Dec 11, 2015 $29.998% (45%)0 .. 20,0000%00:00 (00:00)
549 Island Defense Jul 23, 2015 $1.998% (44%)50,000 .. 100,0000.36%00:01 (00:00)
550 Redemption: Saints And Sinners Nov 18, 2016 $0.998% (44%)50,000 .. 100,0000.39%05:02 (01:40)
551 The Bluecoats: North vs South May 10, 2012 $4.998% (44%)50,000 .. 100,0000%00:00 (00:00)
552 Commander: Conquest of the Americas Jul 30, 2010 $9.998% (44%/68%)50,000 .. 100,0000%00:00 (00:00)
553 Vendetta - Curse of Raven's Cry Nov 20, 2015 $29.998% (43%)0 .. 20,0002.44%06:53 (02:17)
554 Dungeons Feb 10, 2011 $9.998% (43%/65%)200,000 .. 500,0000%00:00 (00:00)
555 Rulers of Nations Jul 16, 2014 $19.998% (43%/63%)0 .. 20,0000%00:00 (00:00)
556 The Entente Gold Aug 11, 2003 $0.598% (43%)50,000 .. 100,0000%00:00 (00:00)
557 Burstfire Sep 24, 2015 N/A7% (42%)50,000 .. 100,0000%00:00 (00:00)
558 Nux Dec 26, 2006 $6.997% (42%)100,000 .. 200,0000%00:00 (00:00)
559 Sword of the Stars II: Enhanced Edition Nov 30, 2012 $19.997% (42%/65%)100,000 .. 200,0000%00:00 (00:00)
560 Samudai Feb 9, 2015 $2.997% (42%)20,000 .. 50,0000%00:00 (00:00)
561 Hydraulic Empire Jul 31, 2015 $7.997% (41%)0 .. 20,0000%00:00 (00:00)
562 Strategic War in Europe Mar 21, 2014 $14.996% (40%)20,000 .. 50,0002.06%03:21 (02:14)
563 Heavy Fire: Shattered Spear Oct 23, 2015 $3.99N/A (N/A)0 .. 20,0000%00:00 (00:00)
564 The Kings' Crusade Oct 8, 2010 $9.996% (40%/71%)50,000 .. 100,0000%00:00 (00:00)
565 Pain Train 2 Mar 16, 2017 $0.696% (40%)20,000 .. 50,0001.49%03:02 (01:00)
566 Knight Adventure Oct 15, 2015 $0.99N/A (N/A)50,000 .. 100,0000%00:00 (00:00)
567 Mechs & Mercs: Black Talons Jan 9, 2015 $9.996% (39%)0 .. 20,0005%01:46 (00:35)
568 Dungeons - The Dark Lord Sep 27, 2011 $19.996% (39%/72%)100,000 .. 200,0000%00:00 (00:00)
569 Risk Jun 10, 2013 $9.996% (39%)20,000 .. 50,0000%00:00 (00:00)
570 Gratuitous Space Battles 2 Apr 16, 2015 $9.996% (39%)20,000 .. 50,0000%00:00 (00:00)
571 Dark Matter Oct 17, 2013 $9.996% (39%)0 .. 20,0000%00:00 (00:00)
572 Devils & Demons Oct 6, 2015 $9.996% (39%)20,000 .. 50,0000%00:00 (00:00)
573 Wave of Darkness Nov 5, 2015 $29.99N/A (N/A)0 .. 20,0003.23%02:31 (00:50)
574 Dead But Alive! Southern England Oct 2, 2015 $14.996% (38%)0 .. 20,0000%00:00 (00:00)
575 Lost in Paradise Aug 20, 2015 $2.996% (38%)20,000 .. 50,0001.41%00:03 (00:01)
576 Infection: Humanity's Last Gasp May 26, 2016 $9.99N/A (N/A)0 .. 20,0001.47%00:54 (00:18)
577 Control Craft 2 Feb 15, 2016 $2.996% (38%)0 .. 20,0001.52%05:58 (01:59)
578 Tiamat X May 29, 2015 $1.995% (37%)50,000 .. 100,0000%00:00 (00:00)
579 Blue Sheep Mar 31, 2016 $1.99N/A (N/A)0 .. 20,0000%00:00 (00:00)
580 Zombie Apocalypse: Escape The Undead City Nov 25, 2013 $0.995% (37%)0 .. 20,0000%00:00 (00:00)
581 Stellar Impact Apr 12, 2012 $9.995% (37%/74%)50,000 .. 100,0000%00:00 (00:00)
582 Sim Junta Aug 18, 2015 $1.995% (35%)0 .. 20,0000%00:00 (00:00)
583 Shadows of War Sep 19, 2014 $2.995% (35%)20,000 .. 50,0000%00:00 (00:00)
584 Urban Empire Jan 20, 2017 $29.995% (35%/62%)50,000 .. 100,0000%00:00 (00:00)
585 Fallen: A2P Protocol Aug 14, 2015 $9.994% (34%)20,000 .. 50,0000%00:00 (00:00)
586 Disciples III - Resurrection Oct 11, 2011 $14.994% (34%/63%)100,000 .. 200,0000%00:00 (00:00)
587 Arma Tactics Oct 1, 2013 $8.994% (34%/47%)200,000 .. 500,0000.2%00:01 (00:00)
588 CTU: Counter Terrorism Unit Apr 22, 2016 $1.494% (34%)0 .. 20,0000%00:00 (00:00)
589 Into the Void Dec 4, 2015 $4.994% (34%)20,000 .. 50,0000%00:00 (00:00)
590 Ranger of the jungle Jul 16, 2016 $3.99N/A (N/A)0 .. 20,0000%00:00 (00:00)
591 Jagged Alliance Flashback Oct 21, 2014 $19.994% (33%)20,000 .. 50,0000%00:00 (00:00)
592 Kick-Ass 2 Aug 15, 2014 $19.994% (33%)20,000 .. 50,0000%00:00 (00:00)
593 Ku: Shroud of the Morrigan Mar 17, 2014 $4.994% (32%)20,000 .. 50,0000%00:00 (00:00)
594 Evopollution Apr 23, 2014 $4.993% (31%)0 .. 20,0000%00:00 (00:00)
595 A Game of Thrones - Genesis Sep 29, 2011 $9.993% (31%)100,000 .. 200,0000%00:00 (00:00)
596 Psichodelya Aug 8, 2014 $1.993% (31%)100,000 .. 200,0000.35%04:18 (01:26)
597 Zombie Zoeds May 20, 2015 $2.993% (31%)200,000 .. 500,0006.25%04:33 (01:31)
598 Ground Pounders Jul 15, 2014 $4.99N/A (N/A)0 .. 20,0000%00:00 (00:00)
599 Power of Defense Aug 4, 2010 $9.99N/A (N/A)0 .. 20,0000%00:00 (00:00)
600 Robotex Nov 18, 2014 $4.993% (30%)100,000 .. 200,0000%00:00 (00:00)
601 Defenders of Time Nov 4, 2014 N/AN/A (N/A/55%)0 .. 20,0000%00:00 (00:00)
602 Tank Operations: European Campaign Nov 22, 2013 $19.993% (29%)20,000 .. 50,0000%00:00 (00:00)
603 Zombies on a Plane Mar 25, 2016 $4.99N/A (N/A)0 .. 20,0000%00:00 (00:00)
604 Solar Shifter EX Sep 11, 2015 $4.993% (27%)20,000 .. 50,0000%00:00 (00:00)
605 Gridberd Sep 7, 2015 $1.393% (27%)200,000 .. 500,0000.14%02:05 (00:41)
606 One Star Apr 17, 2017 $2.992% (25%)50,000 .. 100,0000.34%00:05 (00:01)
607 Hard Truck Apocalypse: Arcade / Ex Machina: Arcade May 24, 2007 $4.992% (25%)20,000 .. 50,0000%00:00 (00:00)
608 APOX Jan 20, 2011 $14.992% (23%/48%)20,000 .. 50,0000%00:00 (00:00)
609 Elite vs. Freedom May 31, 2016 $0.842% (23%)0 .. 20,0000%00:00 (00:00)
610 Lords of the Black Sun Sep 12, 2014 $29.992% (21%)20,000 .. 50,0000%00:00 (00:00)
611 The Asskickers-Steam Edition Feb 6, 2015 $9.992% (21%)0 .. 20,0000%00:00 (00:00)
612 Gemini Wars Nov 2, 2012 $14.992% (20%/53%)20,000 .. 50,0000%00:00 (00:00)
613 Human Extinction Simulator Jan 21, 2015 $19.99N/A (N/A)0 .. 20,0000%00:00 (00:00)
614 Tryst Sep 14, 2012 $14.99N/A (N/A/50%)0 .. 20,0000%00:00 (00:00)
615 Prison Tycoon 3: Lockdown Aug 1, 2007 $9.992% (17%)20,000 .. 50,0000%00:00 (00:00)
616 Citadels Jul 25, 2013 $14.991% (13%/20%)20,000 .. 50,0000%00:00 (00:00)
617 Once Bitten, Twice Dead! Jul 17, 2015 $4.991% (13%)20,000 .. 50,0000%00:00 (00:00)
618 Bloodbath Jun 16, 2014 $14.99N/A (N/A)0 .. 20,0000%00:00 (00:00)
619 Magnetic By Nature Nov 10, 2014 $9.99N/A (N/A)20,000 .. 50,0000%00:00 (00:00)

Tags over time:

Access restricted.

This feature is only available to users with special access rights. Sorry.

If you want to proceed, you need to register or log in first and then back Steam Spy on Patreon. Look for Indie or Pro pledge.

Don't forget to use the same email as on Steam Spy!

Owners of this game also own:

Access restricted.

This feature is only available to users with special access rights. Sorry.

If you want to proceed, you need to register or log in first and then back Steam Spy on Patreon. Look for Indie or Pro pledge.

Don't forget to use the same email as on Steam Spy!

Playtime distribution:

Access restricted.

This feature is only available to users with special access rights. Sorry.

If you want to proceed, you need to register or log in first and then back Steam Spy on Patreon. Look for Indie or Pro pledge.

Don't forget to use the same email as on Steam Spy!

Playtime (2 weeks):

Access restricted.

This feature is only available to users with special access rights. Sorry.

If you want to proceed, you need to register or log in first and then back Steam Spy on Patreon. Look for Indie or Pro pledge.

Don't forget to use the same email as on Steam Spy!

User reviews:

Login required.

Please register or log in to see this information.